Regional Weather Roundup
Issued by NWS

Home | Current Version | Previous Version | Graphics & Text | Print | Product List | Glossary On
Versions: 1 2 3 4 5 6 7 8 9 10 11 12 13 14 15 16 17 18 19 20 21 22 23 24 25 26 27 28 29 30 31 32 33 34 35 36 37 38 39 40 41 42 43 44 45 46 47 48 49 50
000
ASUS45 KBOU 250607
RWRCO

WEATHER ROUNDUP FOR COLORADO
NATIONAL WEATHER SERVICE DENVER/BOULDER CO
1100 PM MST SAT JAN 24 2015

NOTE: "FAIR" INDICATES FEW OR NO CLOUDS BELOW 12000 FEET WITH NO
SIGNIFICANT WEATHER AND/OR OBSTRUCTIONS TO VISIBILITY.

COZ001>005-013-030-031-250700-
...NORTHWEST COLORADO...

CITY           SKY/WX    TMP DP  RH WIND       PRES   REMARKS
CRAIG          CLOUDY    26  20  77 SW3       30.36R
HAYDEN         CLOUDY    25  16  68 CALM      30.34R
MEEKER         PTCLDY    16  10  77 NE3       30.37R
MOUNT WERNER   NOT AVBL
STEAMBOAT SPGS CLOUDY    23  15  72 CALM      30.34R
WALDEN         MOCLDY    28  21  74 SW9       30.28R WCI  20
$$

COZ006>008-011-250700-
...WEST CENTRAL VALLEYS...

CITY           SKY/WX    TMP DP  RH WIND       PRES   REMARKS
GRAND JUNCTION PTCLDY    25  17  72 E5        30.38S WCI  19
MONTROSE       CLEAR     22  14  71 S8        30.41R WCI  12
EAGLE          CLOUDY    27  19  74 CALM      30.38S
RIFLE          CLOUDY    26  19  74 CALM      30.40R
DELTA          CLEAR     26  15  64 CALM      30.41R
NUCLA          CLEAR     27  18  69 E8        30.40R WCI  18
$$

COZ017>023-064>068-250700-
...SOUTHWEST COLORADO...

CITY           SKY/WX    TMP DP  RH WIND       PRES   REMARKS
DURANGO        PTCLDY    22  18  85 E5        30.28R WCI  16
CORTEZ         CLEAR     24  16  71 NE7       30.27R WCI  16
PAGOSA SPRINGS PTCLDY    19  17  92 CALM      30.29R
TELLURIDE      CLEAR     28   9  44 E5        30.39R WCI  23
WOLF CREEK PAS NOT AVBL
$$

COZ009-010-012-014-032>034-037-058>063-250700-
...CENTRAL COLORADO...

CITY           SKY/WX    TMP DP  RH WIND       PRES   REMARKS
ASPEN          CLOUDY    28  19  69 S3        30.35S
BUENA VISTA    PTCLDY    31  18  60 SE3       30.23S
COPPER MTN     CLOUDY    25  19  80 W31G40    30.29F HAZE    WCI   8
BERTHOUD PASS  HVY SNOW  16  10  79 NW46G60   30.20R VSB 1/4 WCI  -8
COTTONWOOD PAS PTCLDY    36  14  41 SW17G31   30.25S
GUNNISON       PTCLDY    -2 -15  55 CALM      30.42R
KREMMLING      CLOUDY    19  12  73 CALM      30.34R
LEADVILLE      MOCLDY    26  15  63 N12       30.30S WCI  16
MONARCH PASS   PTCLDY    14   9  79 MISG      30.41S
SALIDA         PTCLDY    35  19  51 NW5       30.30R WCI  31
SUNLIGHT       CLOUDY    27  21  80 SW3         N/A
WILKERSON PASS PTCLDY    25  18  74 NW15G38   30.24F WCI  12
$$

COZ069>075-250700-
...SAN LUIS VALLEY/SANGRE DE CRISTO MOUNTAINS...

CITY           SKY/WX    TMP DP  RH WIND       PRES   REMARKS
ALAMOSA        MOCLDY    11   7  84 CALM      30.29R
LA VETA PASS   NOT AVBL
SAGUACHE       PTCLDY    25   9  50 SE5       30.29R WCI  19
$$

COZ035-036-038>040-250700-
...NORTHERN COLORADO FRONT RANGE...

CITY           SKY/WX    TMP DP  RH WIND       PRES   REMARKS
DENVER INTL AP MOCLDY    34  28  79 NE12      30.16R WCI  25
DMNS CITY PARK   N/A     37  25  62 E7G13     30.17R
AURORA         PTCLDY    33  28  83 E9        30.17R WCI  25
FRONT RANGE AP NOT AVBL
ERIE MUNI ARPT PTCLDY    36  27  71 E12       30.15R
BOULDER MUN AP PTCLDY    39  21  48 E5        30.15R
CENTENNIAL     PTCLDY    38  24  57 NE14      30.17R
BROOMFIELD     PTCLDY    43  23  45 NE10      30.17R
FORT COLLINS   CLEAR     45  25  45 N15       30.14R
LONGMONT       CLEAR     32  22  67 CALM      30.17R
$$

COZ041-046-047-076>085-087-088-250700-
...PIKES PEAK/PALMER DIVIDE AND SOUTHERN FOOTHILLS...

CITY           SKY/WX    TMP DP  RH WIND       PRES   REMARKS
COLO. SPRINGS  PTCLDY    36  24  62 N14       30.13R
A. F. ACADEMY  PTCLDY    33  21  60 NE6       30.13R WCI  27
ELLICOTT       CLEAR    N/A N/A N/A NE23G31   30.12R
FALCON         CLEAR     33  22  63 N9        30.16R WCI  25
FORT CARSON    CLEAR     37  21  52 W3        30.11R
LIMON          CLOUDY    35  27  72 N21G29    30.16R WCI  24
MONUMENT HILL  PTCLDY    30  21  69 NE13      30.17R WCI  20
TRINIDAD       PTCLDY    34  22  61 SW10      30.14R WCI  26
$$

COZ042>045-048>051-090-091-250700-
...NORTHEAST COLORADO...

CITY           SKY/WX    TMP DP  RH WIND       PRES   REMARKS
GREELEY ARPT   MOCLDY    39  27  60 N13       30.13R
AKRON          CLOUDY    37  28  70 NW30G41   30.10R
BURLINGTON     CLOUDY    39  29  67 NW29G36   30.09R
WRAY           PTCLDY    40  31  70 W21G29    30.05S
STERLING       CLOUDY    41  32  70 NW25G38   30.09R
HOLYOKE        CLEAR     41  28  60 NW17G29   30.03S
FORT MORGAN    CLOUDY    39  27  60 N28G35    30.14S
$$

COZ086-089-092>099-250700-
...SOUTHEAST COLORADO...

CITY           SKY/WX    TMP DP  RH WIND       PRES   REMARKS
PUEBLO         CLEAR     33  25  72 VRB3      30.11R
LA JUNTA       MOCLDY    42  27  55 NE14      30.14R
LAMAR          CLOUDY    43  30  60 N13G20    30.11R
SPRINGFIELD      N/A     33  27  78 NW9       30.09R WCI  25
$$


USA.gov is the U.S. government's official web portal to all federal, state and local government web resources and services.